Hourly Weather Alimkina

Today, 6 March, Saturday

Time Temperature Precipitation Wind Pressure Humidity
00:00 -10°C° 0 mm 1 mps 740 mmHg 89%
01:00 -9°C° 0 mm 1 mps 741 mmHg 90%
02:00 -9°C° 0 mm 1 mps 741 mmHg 93%
03:00 -9°C° 0.2 mm 1 mps 741 mmHg 93%
04:00 -10°C° 0.2 mm 2 mps 741 mmHg 94%
05:00 -9°C° 0.2 mm 2 mps 741 mmHg 95%
06:00 -10°C° 0.2 mm 2 mps 741 mmHg 94%
07:00 -12°C° 0.2 mm 3 mps 742 mmHg 93%
08:00 -12°C° 0.2 mm 3 mps 742 mmHg 92%
09:00 -10°C° 0 mm 3 mps 742 mmHg 90%
10:00 -10°C° 0 mm 4 mps 742 mmHg 88%
11:00 -9°C° 0 mm 4 mps 742 mmHg 86%
12:00 -9°C° 0 mm 4 mps 742 mmHg 84%
13:00 -8°C° 0 mm 4 mps 742 mmHg 82%
14:00 -8°C° 0 mm 4 mps 742 mmHg 79%
15:00 -8°C° 0 mm 3 mps 742 mmHg 82%
16:00 -9°C° 0 mm 3 mps 742 mmHg 84%
17:00 -10°C° 0 mm 3 mps 742 mmHg 87%
18:00 -12°C° 0 mm 3 mps 742 mmHg 88%
19:00 -12°C° 0 mm 3 mps 742 mmHg 89%
20:00 -13°C° 0 mm 3 mps 742 mmHg 89%
21:00 -14°C° 0 mm 3 mps 741 mmHg 90%
22:00 -14°C° 0 mm 3 mps 741 mmHg 90%
23:00 -14°C° 0 mm 3 mps 740 mmHg 91%

Tomorrow, 7 March, Sunday

Time Temperature Precipitation Wind Pressure Humidity
00:00 -15°C° 0 mm 4 mps 740 mmHg 90%
01:00 -15°C° 0 mm 5 mps 739 mmHg 90%
02:00 -15°C° 0 mm 6 mps 739 mmHg 89%
03:00 -15°C° 0 mm 6 mps 738 mmHg 88%
04:00 -14°C° 0 mm 7 mps 737 mmHg 86%
05:00 -13°C° 0 mm 8 mps 736 mmHg 85%
06:00 -14°C° 0 mm 9 mps 735 mmHg 85%
07:00 -12°C° 0 mm 9 mps 734 mmHg 85%
08:00 -12°C° 0 mm 10 mps 733 mmHg 85%
09:00 -10°C° 0.2 mm 10 mps 732 mmHg 87%
10:00 -9°C° 0.2 mm 11 mps 730 mmHg 89%
11:00 -8°C° 0.2 mm 11 mps 729 mmHg 91%
12:00 -8°C° 0.2 mm 11 mps 728 mmHg 90%
13:00 -7°C° 0.2 mm 11 mps 728 mmHg 90%
14:00 -6°C° 0.2 mm 11 mps 727 mmHg 89%
15:00 -6°C° 0.7 mm 9 mps 727 mmHg 85%
16:00 -8°C° 0.7 mm 7 mps 727 mmHg 81%
17:00 -8°C° 0.7 mm 5 mps 728 mmHg 78%
18:00 -10°C° 0 mm 5 mps 728 mmHg 79%
19:00 -11°C° 0 mm 5 mps 729 mmHg 80%
20:00 -12°C° 0 mm 5 mps 729 mmHg 82%
21:00 -12°C° 0 mm 5 mps 729 mmHg 84%
22:00 -12°C° 0 mm 5 mps 729 mmHg 85%
23:00 -12°C° 0 mm 5 mps 729 mmHg 87%

Day after tomorrow, 8 March, Monday

Time Temperature Precipitation Wind Pressure Humidity
00:00 -12°C° 0 mm 6 mps 728 mmHg 86%
01:00 -12°C° 0 mm 7 mps 728 mmHg 86%
02:00 -12°C° 0 mm 8 mps 728 mmHg 85%
03:00 -13°C° 0.1 mm 7 mps 728 mmHg 83%
04:00 -14°C° 0.1 mm 7 mps 728 mmHg 82%
05:00 -15°C° 0.1 mm 7 mps 728 mmHg 80%
06:00 -15°C° 0 mm 7 mps 728 mmHg 83%
07:00 -15°C° 0 mm 7 mps 729 mmHg 86%
08:00 -14°C° 0 mm 6 mps 730 mmHg 90%
09:00 -14°C° 0 mm 6 mps 731 mmHg 86%
10:00 -12°C° 0 mm 6 mps 731 mmHg 83%
11:00 -12°C° 0 mm 7 mps 732 mmHg 80%
12:00 -12°C° 0 mm 7 mps 732 mmHg 81%
13:00 -12°C° 0 mm 7 mps 733 mmHg 82%
14:00 -12°C° 0 mm 7 mps 733 mmHg 83%
15:00 -11°C° 0 mm 6 mps 734 mmHg 85%
16:00 -11°C° 0 mm 5 mps 734 mmHg 87%
17:00 -11°C° 0 mm 4 mps 735 mmHg 89%
18:00 -12°C° 0 mm 4 mps 735 mmHg 91%
19:00 -13°C° 0 mm 3 mps 736 mmHg 92%
20:00 -14°C° 0 mm 3 mps 737 mmHg 94%
21:00 -14°C° 0 mm 3 mps 737 mmHg 94%
22:00 -15°C° 0 mm 3 mps 737 mmHg 95%
23:00 -15°C° 0 mm 2 mps 738 mmHg 96%

9 March, Tuesday

Time Temperature Precipitation Wind Pressure Humidity
00:00 -15°C° 0 mm 2 mps 738 mmHg 96%
01:00 -16°C° 0 mm 2 mps 738 mmHg 96%
02:00 -16°C° 0 mm 2 mps 738 mmHg 97%
03:00 -17°C° 0 mm 2 mps 739 mmHg 96%
04:00 -17°C° 0 mm 2 mps 739 mmHg 96%
05:00 -15°C° 0 mm 1 mps 739 mmHg 96%
06:00 -16°C° 0 mm 2 mps 740 mmHg 95%
07:00 -16°C° 0 mm 2 mps 740 mmHg 94%
08:00 -15°C° 0 mm 2 mps 741 mmHg 94%
09:00 -14°C° 0 mm 2 mps 741 mmHg 91%
10:00 -14°C° 0 mm 2 mps 741 mmHg 89%
11:00 -14°C° 0 mm 3 mps 742 mmHg 87%
12:00 -13°C° 0 mm 3 mps 742 mmHg 86%
13:00 -13°C° 0 mm 3 mps 742 mmHg 84%
14:00 -13°C° 0 mm 3 mps 742 mmHg 83%
15:00 -14°C° 0 mm 3 mps 742 mmHg 85%
16:00 -15°C° 0 mm 3 mps 743 mmHg 87%
17:00 -15°C° 0 mm 2 mps 743 mmHg 90%
18:00 -16°C° 0 mm 2 mps 743 mmHg 90%
19:00 -17°C° 0 mm 2 mps 744 mmHg 91%
20:00 -18°C° 0 mm 2 mps 744 mmHg 91%
21:00 -19°C° 0 mm 2 mps 745 mmHg 92%
22:00 -19°C° 0 mm 2 mps 745 mmHg 92%
23:00 -20°C° 0 mm 2 mps 745 mmHg 93%

10 March, Wednesday

Time Temperature Precipitation Wind Pressure Humidity
00:00 -19°C° 0 mm 1 mps 745 mmHg 94%
01:00 -19°C° 0 mm 1 mps 745 mmHg 95%
02:00 -19°C° 0 mm 1 mps 745 mmHg 96%
03:00 -19°C° 0 mm 1 mps 745 mmHg 96%
04:00 -18°C° 0 mm 1 mps 745 mmHg 96%
05:00 -17°C° 0 mm 1 mps 746 mmHg 96%
06:00 -17°C° 0.1 mm 1 mps 746 mmHg 96%
07:00 -16°C° 0.1 mm 1 mps 746 mmHg 95%
08:00 -17°C° 0.1 mm 2 mps 746 mmHg 94%
09:00 -16°C° 0.2 mm 2 mps 746 mmHg 94%
10:00 -16°C° 0.2 mm 3 mps 746 mmHg 93%
11:00 -16°C° 0.2 mm 3 mps 746 mmHg 92%
12:00 -15°C° 0.1 mm 3 mps 746 mmHg 91%
13:00 -16°C° 0.1 mm 4 mps 746 mmHg 91%
14:00 -16°C° 0.1 mm 4 mps 746 mmHg 90%
15:00 -18°C° 0 mm 4 mps 746 mmHg 91%
16:00 -19°C° 0 mm 4 mps 746 mmHg 91%
17:00 -19°C° 0 mm 3 mps 746 mmHg 91%
18:00 -22°C° 0 mm 3 mps 746 mmHg 91%
19:00 -24°C° 0 mm 3 mps 747 mmHg 92%
20:00 -25°C° 0 mm 3 mps 747 mmHg 92%
21:00 -25°C° 0 mm 2 mps 748 mmHg 92%
22:00 -25°C° 0 mm 2 mps 748 mmHg 91%
23:00 -26°C° 0 mm 2 mps 748 mmHg 91%

11 March, Thursday

Time Temperature Precipitation Wind Pressure Humidity
00:00 -26°C° 0 mm 2 mps 748 mmHg 91%
01:00 -27°C° 0 mm 2 mps 748 mmHg 91%
02:00 -27°C° 0 mm 2 mps 749 mmHg 91%
03:00 -27°C° 0 mm 2 mps 749 mmHg 91%
04:00 -27°C° 0 mm 2 mps 749 mmHg 91%
05:00 -28°C° 0 mm 2 mps 749 mmHg 90%
06:00 -26°C° 0 mm 2 mps 749 mmHg 89%
07:00 -26°C° 0 mm 3 mps 749 mmHg 88%
08:00 -25°C° 0 mm 3 mps 749 mmHg 87%
09:00 -23°C° 0 mm 3 mps 749 mmHg 86%
10:00 -21°C° 0 mm 3 mps 749 mmHg 85%
11:00 -20°C° 0 mm 4 mps 749 mmHg 84%
12:00 -19°C° 0 mm 4 mps 748 mmHg 84%
13:00 -18°C° 0 mm 4 mps 748 mmHg 84%
14:00 -18°C° 0 mm 5 mps 748 mmHg 84%
15:00 -18°C° 0 mm 4 mps 747 mmHg 86%
16:00 -18°C° 0 mm 4 mps 747 mmHg 88%
17:00 -19°C° 0 mm 4 mps 746 mmHg 90%
18:00 -19°C° 0 mm 4 mps 746 mmHg 91%
19:00 -20°C° 0 mm 5 mps 746 mmHg 92%
20:00 -21°C° 0 mm 5 mps 745 mmHg 94%
21:00 -20°C° 0 mm 5 mps 745 mmHg 93%
22:00 -20°C° 0 mm 6 mps 744 mmHg 92%
23:00 -18°C° 0 mm 6 mps 744 mmHg 92%
Show more